Weather History for KLJF - March, 2012

Change the Weather History Date:

Thursday, March 8, 2012

  Actual Average Record
Temperature  
Mean Temperature 27 °F -  
Max Temperature 35 °F 36 °F 73 °F (1987)
Min Temperature 19 °F 16 °F -12 °F (1951)
Degree Days  
Heating Degree Days 38    
Moisture  
Dew Point 20 °F    
Average Humidity 79    
Maximum Humidity 93    
Minimum Humidity 60    
Precipitation  
Precipitation 0.00 in - - ()
Sea Level Pressure  
Sea Level Pressure 30.12 in    
Wind  
Wind Speed 11 mph (West)    
Max Wind Speed 23 mph    
Max Gust Speed 33 mph    
Visibility 10 miles    
Events Snow    
Averages and records for this station are not official NWS values.
T = Trace of Precipitation, MM = Missing Value Source: NWS Daily Summary

Daily Weather History Graph

Daily Weather History Graph

Search for Another Location

Airport or City:

Trip Planner

Search our weather history database for the weather conditions in past years. The results will help you decide how hot, cold, wet, or windy it might be!

Date:

Astronomy

Mar. 08, 2012 Rise Set
Actual Time 6:42 AM CST 6:15 PM CST
Civil Twilight 6:13 AM CST 6:44 PM CST
Nautical Twilight 5:39 AM CST 7:18 PM CST
Astronomical Twilight 5:04 AM CST 7:53 PM CST
Moon 7:09 PM CST (3/8) 6:23 AM CST (3/8)
Length of Visible Light 12h 31m
Length of Day
11h 33m
Full, 100% of the Moon is Illuminated
Mar 8
Full
Mar 14
Last Quarter
Mar 22
New
Mar 30
First Quarter
Apr 6
Full

Hourly Weather History & Observations

Time (CST) Temp. Windchill Dew Point Humidity Pressure Visibility Wind Dir Wind Speed Gust Speed Precip Events Conditions
12:12 AM 21.2 °F 7.8 °F 17.6 °F 86% 30.02 in 10.0 mi WNW 15.0 mph 19.6 mph N/A   Clear
12:33 AM 21.2 °F 8.3 °F 17.6 °F 86% 30.03 in 10.0 mi WNW 13.8 mph 20.7 mph N/A   Clear
12:53 AM 21.2 °F 8.3 °F 17.6 °F 86% 30.03 in 10.0 mi WNW 13.8 mph 20.7 mph N/A   Clear
1:13 AM 21.2 °F 8.9 °F 17.6 °F 86% 30.04 in 10.0 mi WNW 12.7 mph 19.6 mph N/A   Clear
1:33 AM 21.2 °F 8.9 °F 17.6 °F 86% 30.05 in 10.0 mi WNW 12.7 mph 19.6 mph N/A   Clear
1:53 AM 21.2 °F 10.1 °F 17.6 °F 86% 30.05 in 10.0 mi WNW 10.4 mph - N/A   Clear
2:13 AM 21.2 °F 9.5 °F 17.6 °F 86% 30.05 in 10.0 mi WNW 11.5 mph - N/A   Clear
2:33 AM 21.2 °F 12.6 °F 19.4 °F 93% 30.06 in 10.0 mi WNW 6.9 mph - N/A   Clear
2:53 AM 21.2 °F 10.9 °F 17.6 °F 86% 30.06 in 10.0 mi WNW 9.2 mph - N/A   Clear
3:13 AM 21.2 °F 12.6 °F 17.6 °F 86% 30.07 in 10.0 mi WNW 6.9 mph - N/A   Clear
3:33 AM 19.4 °F 11.5 °F 17.6 °F 93% 30.08 in 10.0 mi West 5.8 mph - N/A   Clear
3:53 AM 19.4 °F 11.5 °F 17.6 °F 93% 30.07 in 10.0 mi West 5.8 mph - N/A   Clear
4:13 AM 19.4 °F 11.5 °F 17.6 °F 93% 30.08 in 10.0 mi West 5.8 mph - N/A   Clear
4:33 AM 19.4 °F 12.8 °F 17.6 °F 93% 30.08 in 10.0 mi West 4.6 mph - N/A   Clear
4:53 AM 19.4 °F 12.8 °F 17.6 °F 93% 30.08 in 10.0 mi West 4.6 mph - N/A   Mostly Cloudy
5:13 AM 19.4 °F 11.5 °F 17.6 °F 93% 30.08 in 10.0 mi West 5.8 mph - N/A   Overcast
5:33 AM 19.4 °F 12.8 °F 17.6 °F 93% 30.08 in 10.0 mi West 4.6 mph - N/A   Overcast
5:53 AM 21.2 °F 14.9 °F 19.4 °F 93% 30.09 in 10.0 mi West 4.6 mph - N/A   Overcast
6:13 AM 21.2 °F 16.4 °F 19.4 °F 93% 30.10 in 5.0 mi WSW 3.5 mph - N/A Snow Light Snow
6:33 AM 21.2 °F - 19.4 °F 93% 30.10 in 10.0 mi Calm Calm - N/A   Overcast
6:53 AM 21.2 °F - 19.4 °F 93% 30.11 in 10.0 mi Calm Calm - N/A   Overcast
7:13 AM 21.2 °F 13.6 °F 19.4 °F 93% 30.11 in 10.0 mi WSW 5.8 mph - N/A   Overcast
7:33 AM 23.0 °F 14.7 °F 21.2 °F 93% 30.11 in 10.0 mi WSW 6.9 mph - N/A   Overcast
7:53 AM 24.8 °F 16.9 °F 21.2 °F 86% 30.12 in 10.0 mi West 6.9 mph - N/A   Mostly Cloudy
8:13 AM 24.8 °F 13.4 °F 21.2 °F 86% 30.13 in 10.0 mi West 12.7 mph 18.4 mph N/A   Overcast
8:32 AM 24.8 °F 12.4 °F 21.2 °F 86% 30.13 in 10.0 mi WNW 15.0 mph 19.6 mph N/A   Overcast
8:53 AM 24.8 °F 10.7 °F 21.2 °F 86% 30.14 in 10.0 mi WNW 19.6 mph 27.6 mph N/A   Overcast
9:13 AM 26.6 °F 14.7 °F 21.2 °F 80% 30.16 in 10.0 mi WNW 15.0 mph 26.5 mph N/A   Mostly Cloudy
9:32 AM 26.6 °F 15.2 °F 21.2 °F 80% 30.16 in 10.0 mi WNW 13.8 mph 23.0 mph N/A   Mostly Cloudy
10:13 AM 28.4 °F 15.4 °F 21.2 °F 74% 30.17 in 10.0 mi WNW 19.6 mph 25.3 mph N/A   Scattered Clouds
10:32 AM 28.4 °F 17.5 °F 21.2 °F 74% 30.18 in 10.0 mi WNW 13.8 mph 26.5 mph N/A   Clear
10:53 AM 28.4 °F 17.5 °F 21.2 °F 74% 30.19 in 10.0 mi WNW 13.8 mph 24.2 mph N/A   Clear
11:13 AM 28.4 °F 18.0 °F 21.2 °F 74% 30.19 in 10.0 mi WNW 12.7 mph 24.2 mph N/A   Clear
11:33 AM 28.4 °F 18.5 °F 21.2 °F 74% 30.18 in 10.0 mi West 11.5 mph - N/A   Clear
11:53 AM 28.4 °F 18.5 °F 21.2 °F 74% 30.18 in 10.0 mi West 11.5 mph 16.1 mph N/A   Clear
12:12 PM 30.2 °F 20.2 °F 21.2 °F 69% 30.18 in 10.0 mi WNW 12.7 mph 18.4 mph N/A   Clear
12:33 PM 30.2 °F 20.8 °F 21.2 °F 69% 30.18 in 10.0 mi West 11.5 mph - N/A   Clear
12:53 PM 30.2 °F 19.8 °F 21.2 °F 69% 30.17 in 10.0 mi West 13.8 mph 19.6 mph N/A   Clear
1:12 PM 30.2 °F 19.3 °F 19.4 °F 64% 30.15 in 10.0 mi West 15.0 mph 19.6 mph N/A   Clear
1:33 PM 30.2 °F 21.3 °F 19.4 °F 64% 30.15 in 10.0 mi West 10.4 mph 19.6 mph N/A   Clear
1:53 PM 32.0 °F 22.1 °F 21.2 °F 64% 30.14 in 10.0 mi WSW 13.8 mph 19.6 mph N/A   Clear
2:12 PM 32.0 °F 22.5 °F 21.2 °F 64% 30.13 in 10.0 mi WSW 12.7 mph 20.7 mph N/A   Clear
2:33 PM 32.0 °F 23.6 °F 21.2 °F 64% 30.13 in 10.0 mi West 10.4 mph 23.0 mph N/A   Scattered Clouds
2:53 PM 33.8 °F 24.8 °F 21.2 °F 60% 30.13 in 10.0 mi West 12.7 mph 18.4 mph N/A   Clear
3:13 PM 33.8 °F 23.9 °F 21.2 °F 60% 30.12 in 10.0 mi West 15.0 mph 21.9 mph N/A   Clear
3:33 PM 33.8 °F 23.5 °F 23.0 °F 65% 30.12 in 10.0 mi West 16.1 mph 24.2 mph N/A   Clear
3:53 PM 35.6 °F 27.1 °F 24.8 °F 65% 30.12 in 10.0 mi West 12.7 mph 18.4 mph N/A   Clear
4:12 PM 35.6 °F 26.2 °F 23.0 °F 60% 30.12 in 10.0 mi West 15.0 mph 20.7 mph N/A   Scattered Clouds
4:33 PM 35.6 °F 25.9 °F 24.8 °F 65% 30.13 in 10.0 mi West 16.1 mph 29.9 mph N/A   Overcast
4:53 PM 35.6 °F 25.2 °F 24.8 °F 65% 30.14 in 10.0 mi WNW 18.4 mph 25.3 mph N/A   Overcast
5:13 PM 35.6 °F 25.2 °F 28.4 °F 75% 30.16 in 5.0 mi NW 18.4 mph 32.2 mph N/A Snow Light Snow
5:33 PM 33.8 °F 23.2 °F 24.8 °F 70% 30.17 in 10.0 mi WNW 17.3 mph 28.8 mph N/A   Overcast
5:53 PM 33.8 °F 21.6 °F 23.0 °F 65% 30.19 in 10.0 mi WNW 23.0 mph 33.4 mph N/A   Scattered Clouds
6:12 PM 32.0 °F 19.5 °F 24.8 °F 75% 30.21 in 10.0 mi NNW 21.9 mph 31.1 mph N/A   Clear
6:33 PM 30.2 °F 17.4 °F 19.4 °F 64% 30.23 in 10.0 mi NW 20.7 mph 31.1 mph N/A   Clear
6:53 PM 30.2 °F 19.8 °F 19.4 °F 64% 30.25 in 10.0 mi NW 13.8 mph 25.3 mph N/A   Scattered Clouds
7:13 PM 28.4 °F 15.4 °F 19.4 °F 69% 30.27 in 10.0 mi NW 19.6 mph 27.6 mph N/A   Scattered Clouds
7:33 PM 28.4 °F 14.7 °F 17.6 °F 64% 30.28 in 10.0 mi NNW 21.9 mph 31.1 mph N/A   Clear
7:53 PM 26.6 °F 13.4 °F 17.6 °F 69% 30.30 in 10.0 mi NW 18.4 mph 28.8 mph N/A   Clear
8:13 PM 26.6 °F 13.4 °F 17.6 °F 69% 30.31 in 10.0 mi NW 18.4 mph 27.6 mph N/A   Clear
8:33 PM 24.8 °F 11.5 °F 15.8 °F 69% 30.32 in 10.0 mi NNW 17.3 mph 24.2 mph N/A   Clear
8:53 PM 24.8 °F 12.4 °F 15.8 °F 69% 30.35 in 10.0 mi NNW 15.0 mph 19.6 mph N/A   Clear
9:13 PM 24.8 °F 12.9 °F 15.8 °F 69% 30.36 in 10.0 mi NNW 13.8 mph - N/A   Clear
9:33 PM 24.8 °F 12.9 °F 14.0 °F 64% 30.37 in 10.0 mi NW 13.8 mph 24.2 mph N/A   Clear
9:53 PM 23.0 °F 11.1 °F 12.2 °F 63% 30.39 in 10.0 mi NW 12.7 mph 23.0 mph N/A   Clear
10:13 PM 21.2 °F 8.3 °F 12.2 °F 68% 30.40 in 10.0 mi NW 13.8 mph 20.7 mph N/A   Clear
10:33 PM 21.2 °F 7.8 °F 10.4 °F 63% 30.40 in 10.0 mi NW 15.0 mph 20.7 mph N/A   Clear
10:53 PM 21.2 °F 8.3 °F 8.6 °F 58% 30.41 in 10.0 mi NW 13.8 mph - N/A   Clear
11:13 PM 19.4 °F 6.6 °F 8.6 °F 63% 30.42 in 10.0 mi NW 12.7 mph 18.4 mph N/A   Clear
11:33 PM 19.4 °F 6.6 °F 6.8 °F 58% 30.42 in 10.0 mi NW 12.7 mph 18.4 mph N/A   Clear
11:53 PM 19.4 °F 6.6 °F 6.8 °F 58% 30.43 in 10.0 mi NW 12.7 mph 21.9 mph N/A   Clear